Location: Newark
(44.2764°N, 5.2753°E)
Time: 11:36:56
(UTC+00:00)

ISS - Pass Details

Date: 26 January 2020
Orbit: 415 x 422 km, 51.6° (Epoch: 23 February)

Event Time Altitude Azimuth Distance (km) Brightness Sun altitude
Rises 17:20:36 0° 252° (WSW) 2,372 2.7 -7.7°
Reaches altitude 10° 17:22:44 10° 257° (WSW) 1,508 0.8 -8.0°
Maximum altitude 17:26:03 51° 335° (NNW) 540 -3.2 -8.6°
Enters shadow 17:29:10 11° 52° (NE) 1,429 -1.6 -9.1°
